Voltar ao catálogo

COSMOS 2499 DEB

AtivoPO
NORAD 56573·DEBRIS·🇷🇺 Russia

Lançado May 23, 2014 de Plesetsk Cosmodrome

Loading…

Próximas Passagens (próximas 24 horas)

TLE

AtualizadoSource: Space-Track

Época: Sep 11, 2026, 06:39 UTC

1 56573U 14028BG  26254.27723324  .00006885  00000-0  85482-2 0  9996
2 56573  82.2288  93.7406 0355454 259.0829  97.0129 13.41223688176727

Acompanhe COSMOS 2499 DEB em tempo real com AllMySat

Download on the App Store